Tracking 28790 objects as of 19-Apr-2024
HD Live streaming from Space Station
objects crossing your sky now

COSMOS 1375 DEB

Track COSMOS 1375 DEB now!
10-day predictions


NORAD ID: 16206
Int'l Code: 1982-055H
Perigee: 985.7 km
Apogee: 1,001.7 km
Inclination: 65.8 °
Period: 104.8 minutes
Semi major axis: 7364 km
RCS: 0.4888 m2 (medium)
Launch date: June 6, 1982
Source: Commonwealth of Independent States (former USSR) (CIS)
Launch site: PLESETSK MISSILE AND SPACE COMPLEX (PKMTR)

Note: This is SATELLITE DEBRIS
Your satellite tracking list
Your tracking list is empty




NASA's NSSDC Master Catalog

Two Line Element Set (TLE):
1 16206U 82055H   24109.07245616  .00000231  00000-0  33287-3 0  9994
2 16206  65.8368 350.7154 0010918  45.4036  58.7826 13.73629899 97839
Source of the keplerian elements: AFSPC